Terminal Aerodrome Forecast
Issued by NWS

Home | Current Version | Previous Version | Text Only | Print | Product List | Glossary On
Versions: 1 2 3 4 5 6 7 8 9 10 11 12 13 14 15 16 17 18 19 20 21 22
000
FTUS41 KOKX 021322 AAA
TAFSWF
TAF AMD
KSWF 021322Z 0213/0318 13005KT 2SM BR OVC005
      TEMPO 0213/0215 1SM -TSRA OVC005CB
     FM021600 18005KT 5SM BR BKN008
     FM021800 VRB05KT 6SM BR SCT008 BKN015
     FM030400 VRB04KT 3SM BR BKN008
      AMD NOT SKED=

USA.gov is the U.S. government's official web portal to all federal, state and local government web resources and services.